[[{"header":{"parameterUnit":"m.s-1","parameterCategory":1,"la1":30.2992,"la2":30.254,"lo1":-89.0895,"lo2":-89.0443,"dy":0.0025,"dx":0.0025,"nx":19,"ny":19,"refTime":"2026-04-02T03:00:00:Z","depth":0,"parameterNumber":2,"parameterNumberName":"U-component_of_WINDS"},"data":[0,0,0,-3.6294,-3.6296,-3.6411,-3.6411,-3.6563,-3.6564,0,0,0,0,0,0,0,0,0,0,0,-3.6262,-3.6264,-3.6293,-3.6296,-3.6411,-3.6411,-3.6562,-3.6564,0,0,0,0,0,0,0,0,0,0,0,-3.6262,-3.6263,-3.6265,-3.6297,-3.6411,-3.6411,-3.6562,-3.6474,0,0,0,0,0,0,0,0,0,0,-3.6362,-3.6336,-3.6263,-3.6265,-3.6297,-3.6411,-3.6411,-3.647,-3.6479,-3.6513,0,-3.6543,0,-3.6556,-3.6575,-3.6575,0,0,0,-3.6294,-3.6328,-3.6356,-3.6265,-3.6298,-3.641,-3.6358,-3.6475,-3.6486,-3.6526,-3.6546,-3.6551,-3.6559,-3.6576,-3.6576,-3.6777,-3.6778,0,0,-3.6288,-3.6285,-3.6348,-3.6363,-3.6346,-3.6355,-3.6362,-3.6482,-3.6503,-3.6546,-3.6554,-3.6561,-3.6577,-3.6578,-3.6776,-3.6777,0,0,0,-3.6271,-3.628,-3.6306,-3.6357,-3.6378,-3.6358,-3.6367,-3.6497,-3.6506,-3.6556,-3.6563,-3.6578,-3.6579,-3.6775,-3.6776,-3.6823,0,0,0,-3.6267,-3.6271,-3.6303,-3.6302,-3.6376,-3.6439,-3.638,-3.6498,-3.6511,-3.6562,-3.6578,-3.6581,-3.6773,-3.6775,-3.682,-3.6846,0,0,0,-3.6254,-3.6269,-3.6287,-3.6302,-3.6351,-3.6437,-3.6452,-3.6501,-3.6516,-3.6575,-3.6581,-3.6773,-3.6775,-3.6816,-3.684,-3.6897,0,0,0,-3.6239,-3.6327,-3.6287,-3.6389,-3.635,-3.6466,-3.6452,-3.6538,-3.6595,-3.6578,-3.6774,-3.6776,-3.6815,-3.6837,-3.6893,-3.6942,-3.6963,0,0,-3.6349,-3.6341,-3.6401,-3.6368,-3.649,-3.6449,-3.6578,-3.6633,-3.6642,-3.6731,-3.6736,-3.6821,-3.684,-3.6896,-3.7083,-3.7099,0,0,0,-3.6434,-3.6477,-3.6511,-3.6564,-3.6609,-3.6649,-3.6685,-3.6705,-3.6781,-3.6687,-3.6858,-3.6869,-3.6902,-3.6925,-3.6939,-3.6967,-3.6787,-3.6787,-3.6787,-3.6584,-3.6591,-3.669,-3.6711,-3.6764,-3.68,-3.6843,-3.6877,-3.6868,-3.6909,-3.6934,-3.7047,-3.7074,-3.7085,-3.7114,-3.6962,-3.6963,-3.6963,-3.6963,-3.6744,-3.6805,-3.6793,-3.6884,-3.6891,-3.6968,-3.7007,-3.6998,-3.7071,-3.7028,-3.7057,-3.7008,-3.7103,-3.7128,-3.6967,-3.6966,-3.6965,-3.6965,-3.6965,-3.6841,-3.6872,-3.6896,-3.6974,-3.7035,-3.7053,-3.7123,-3.7127,-3.7132,-3.7161,-3.7188,-3.7187,-3.7185,-3.7174,-3.7174,-3.7175,-3.7175,-3.7175,-3.7175,-3.6932,-3.6957,-3.7016,-3.7071,-3.7106,-3.7153,-3.7192,-3.7226,-3.7266,-3.7263,-3.7263,-3.725,-3.7111,-3.7075,-3.7182,-3.718,-3.718,-3.7179,-3.7179,-3.7089,-3.7054,-3.7144,-3.718,-3.7245,-3.7304,-3.7309,-3.7379,-3.7409,-3.7443,-3.7425,-3.7322,-3.7314,-3.7303,-3.7273,-3.7424,-3.7424,-3.7424,-3.7424,-3.7169,-3.7166,-3.7259,-3.7315,-3.7371,-3.7385,-3.7486,-3.7517,-3.7544,-3.7563,-3.7542,-3.7503,-3.7492,-3.749,-3.7475,-3.7447,-3.7639,-3.7639,-3.764,-3.7265,-3.7268,-3.7353,-3.7379,-3.743,-3.7474,-3.757,-3.7635,-3.7658,-3.7648,-3.7577,-3.7568,-3.7506,-3.7485,-3.7472,-3.7448,-3.7397,0,0]},{"header":{"parameterUnit":"m.s-1","parameterCategory":1,"la1":30.2992,"la2":30.254,"lo1":-89.0895,"lo2":-89.0443,"dy":0.0025,"dx":0.0025,"nx":19,"ny":19,"refTime":"2026-04-02T03:00:00:Z","depth":0,"parameterNumber":3,"parameterNumberName":"V-component_of_WINDS"},"data":[0,0,0,3.0215,3.0217,3.0333,3.0333,3.048,3.0482,0,0,0,0,0,0,0,0,0,0,0,3.0181,3.0182,3.0214,3.0217,3.0333,3.0333,3.048,3.0482,0,0,0,0,0,0,0,0,0,0,0,3.018,3.0181,3.0183,3.0218,3.0333,3.0334,3.048,3.0392,0,0,0,0,0,0,0,0,0,0,3.028,3.0249,3.0181,3.0183,3.0218,3.0333,3.0334,3.0388,3.0398,3.0428,0,3.0455,0,3.0471,3.0491,3.0492,0,0,0,3.0217,3.0241,3.0272,3.0183,3.0219,3.0333,3.0281,3.0394,3.0405,3.044,3.0457,3.0463,3.0473,3.0492,3.0493,3.0671,3.0672,0,0,3.021,3.0201,3.0265,3.028,3.0263,3.0277,3.0284,3.04,3.0417,3.0458,3.0466,3.0476,3.0493,3.0495,3.067,3.0671,0,0,0,3.0192,3.0197,3.0225,3.0273,3.0295,3.028,3.0289,3.0412,3.0422,3.0468,3.0477,3.0494,3.0496,3.0669,3.0671,3.0706,0,0,0,3.0188,3.0186,3.0222,3.0218,3.0292,3.0355,3.0298,3.0414,3.0428,3.0477,3.0494,3.0497,3.0668,3.067,3.0703,3.0723,0,0,0,3.0173,3.0184,3.0201,3.0217,3.0267,3.0353,3.037,3.0417,3.0434,3.0492,3.0498,3.0668,3.067,3.07,3.0719,3.0768,0,0,0,3.0153,3.0229,3.0202,3.0291,3.0266,3.0375,3.037,3.0451,3.0505,3.0495,3.0668,3.067,3.0699,3.0716,3.0765,3.0809,3.0826,0,0,3.0244,3.024,3.0293,3.0272,3.0384,3.0358,3.0474,3.0531,3.0544,3.0628,3.0632,3.0704,3.0718,3.0768,3.0924,3.0938,0,0,0,3.0318,3.0357,3.0388,3.0441,3.0487,3.0529,3.057,3.0592,3.0664,3.0586,3.0735,3.0744,3.0773,3.0794,3.0806,3.0832,3.068,3.0679,3.0679,3.0433,3.0448,3.0537,3.0566,3.0617,3.0659,3.0701,3.0737,3.0735,3.077,3.0795,3.0889,3.0913,3.0922,3.0949,3.0819,3.0819,3.0819,3.0819,3.0568,3.0624,3.0623,3.0709,3.0723,3.0795,3.0839,3.0836,3.0905,3.0871,3.0897,3.0859,3.0936,3.096,3.0822,3.0822,3.0821,3.0821,3.0821,3.0645,3.0675,3.0701,3.078,3.0838,3.0864,3.0932,3.0942,3.0952,3.0978,3.1006,3.1005,3.1007,3.0991,3.0991,3.0991,3.0992,3.0992,3.0992,3.0714,3.0743,3.0799,3.0857,3.0893,3.0941,3.0986,3.1021,3.1063,3.1065,3.1066,3.1061,3.0941,3.0911,3.0997,3.0996,3.0996,3.0995,3.0995,3.0846,3.0818,3.0905,3.0941,3.1011,3.1069,3.1082,3.1154,3.1184,3.1217,3.1207,3.1117,3.1113,3.1104,3.1079,3.1204,3.1204,3.1204,3.1204,3.0911,3.091,3.1002,3.106,3.1117,3.1139,3.1236,3.1272,3.1305,3.1325,3.1308,3.1276,3.1267,3.1268,3.1256,3.1233,3.1393,3.1393,3.1394,3.0993,3.0999,3.108,3.1113,3.1169,3.1217,3.1309,3.1375,3.1406,3.1402,3.1341,3.1333,3.1281,3.1264,3.1257,3.1237,3.1196,0,0]}]]